Gulkana Airport
PAGK : now visible

Airfield :











YOU CAN JOIN US ON...

 
LOGIN :

Register | Disclaimer

   EN    FR    IT 

 









Legend :    VFR   Marginal VFR   IFR   Intensive IFR   Very Intensive IFR
Visi :
Ceiling :
>= 8 km
>= 3000ft
5 to 8 km
1000 to 3000 ft
1500m to 5 km
500 to 1000 ft
800 to 1500m
200 to 500 ft
< 800m
< 200 ft
Symbols :   Thunderstorms  Fog  Heavy snow  Heavy precipitations  Wind > 20 kt






- Airport Elevation : 1586 ft
- IATA code : GKN


PAGK - Gulkana

CURRENT METAR :
  • 170653Z AUTO 33005KT 10SM OVC110 06/02 A2944 RMK AO2 SLP983 T00560017 TSNO

EXPIRED METARs :
  • 170553Z AUTO 35005KT 10SM OVC110 06/02 A2945 RMK AO2 SLP985 T00610022 10100 20061 58008 TSNO
  • 170453Z AUTO 01007KT 10SM FEW110 07/02 A2946 RMK AO2 SLP988 T00720017 TSNO

TAF PAGK
Valid from the 17 at 06:00 until the 18 at 06:00 UTC


170540Z 1706/1806 01008KT P6SM SCT060 BKN100
PAZA FIR / North America



MET'MAP, your aeronautical weather chart ! - Copyright ORBIFLY December 2007 - Disclaimer

ORBIFLY MET'MAP TEAM :

Programming & Development : Alexandra Zaïnal
Concept & original design : Baudouin d'Aumeries
Assistance for programming : Marc-Olivier Méhu
Technical & hardware support : Manuel Goepfert

Contact : metmap@orbifly.com




SOURCES & CREDITS :

   NOAA       Earth
Advisory